Weather Roundup
Issued by NWS Springfield, MO

Home | Current Version | Previous Version | Text Only | Print | Product List | Glossary On
Versions: 1 2 3 4 5 6 7 8 9 10 11 12 13 14 15 16 17 18 19 20 21 22 23 24 25 26 27 28 29 30 31 32 33 34 35 36 37 38 39 40 41 42 43 44 45 46 47 48 49 50
000
NZUS99 KSGF 140907
HRRSGF

HOURLY WEATHER
NATIONAL WEATHER SERVICE SPRINGFIELD MO
300 AM CST SUN FEB 14 2016

......SGF CWA......

CITY           SKY/WX    TMP DP  RH WIND       PRES   REMARKS
SPRINGFIELD    CLOUDY    27   7  42 SE22      30.08F WCI  13
JOPLIN         CLOUDY    36  11  35 SE14      30.02F WCI  27
WEST PLAINS    MIX PCPN  23  11  60 SE12      30.21F WCI  12
ROLLA          CLOUDY    23   4  44 E18       30.18F WCI   9
OSAGE BEACH    CLOUDY    27   1  33 SE9       30.18F WCI  17

......SURROUNDING SGF CWA......

CITY           SKY/WX    TMP DP  RH WIND       PRES   REMARKS
CHANUTE        CLOUDY    35  14  42 E12       30.00F WCI  27
PARSONS        CLOUDY    39  18  42 SE9G16    30.00F WCI  33
COFFEYVILLE    CLOUDY    40  17  39 SE13      30.00F WCI  32
EMPORIA        CLOUDY    25   9  50 N8        30.04R WCI  16
GROVE OK       CLOUDY    39  18  41 SE8       30.03F WCI  34
ROGERS AR      CLOUDY    35  14  42 SE14      30.03F WCI  26
SILOAM SPRINGS CLOUDY    37  12  35 SE16G22   30.03F WCI  28
HARRISON AR    CLOUDY    29  10  45 SE13      30.12F WCI  19
NEAR YELLVILLE CLOUDY    27   7  43 E8        30.17F WCI  18

......KANSAS AND MISSOURI......

CITY           SKY/WX    TMP DP  RH WIND       PRES   REMARKS
KANSAS CTY INT CLOUDY    23   6  48 E10       30.09F WCI  12
DOWNTOWN KC    CLOUDY    26   6  42 E8        30.10F WCI  18
COLUMBIA       CLOUDY    23   5  46 SE16      30.18F WCI  10
SEDALIA        CLOUDY    27   4  37 SE13      30.14F WCI  16
ST JOSEPH      CLOUDY    23   4  44 SE13      30.12F WCI  11
ST LOUIS       CLOUDY    24   7  48 SE14      30.34F WCI  12
SPIRIT OF STL  CLOUDY    23   9  55 E9        30.32F WCI  13
KIRKSVILLE     CLOUDY    19   7  59 SE15      30.21F WCI   5
WICHITA        CLOUDY    36  17  46 N16       30.02R WCI  26
TOPEKA         CLOUDY    25   5  42 E8        30.08F WCI  16
OLATHE         CLOUDY    23   5  46 E12       30.07F WCI  12

......TENNESSEE......

CITY           SKY/WX    TMP DP  RH WIND       PRES   REMARKS
MEMPHIS        CLOUDY    32   8  36 E9        30.28F WCI  24
NASHVILLE      CLOUDY    27   4  37 E7        30.37F WCI  19

......ARKANSAS.......

CITY           SKY/WX    TMP DP  RH WIND       PRES   REMARKS
FAYETTEVILLE   CLOUDY    37  18  46 S10G22    30.05F WCI  30
FT SMITH       CLOUDY    34  12  40 E12       30.11F WCI  25
LITTLE ROCK    CLOUDY    34  14  43 E13       30.25F WCI  25

......OKLAHOMA.......

CITY           SKY/WX    TMP DP  RH WIND       PRES   REMARKS
TULSA          CLOUDY    41  19  41 SE21G28   29.96F
MCALESTER      CLOUDY    49  31  49 S6        30.02F
OKLAHOMA CITY  PTCLDY    46  38  73 S16       29.88F

......IOWA............

CITY           SKY/WX    TMP DP  RH WIND       PRES   REMARKS
DES MOINES     CLOUDY    16   9  74 SE12G21   30.15F WCI   3
QUAD CITIES    CLOUDY    19   1  45 SE12      30.33F WCI   7

......ILLINOIS........

CITY           SKY/WX    TMP DP  RH WIND       PRES   REMARKS
QUINCY         CLOUDY    18  11  74 SE16      30.27F WCI   3
CHICAGO        CLOUDY    10   1  67 SE7       30.41F WCI  -1



USA.gov is the U.S. government's official web portal to all federal, state and local government web resources and services.